owner,sensor,date,latitude,longitude,vertical_datum,direction_of_sea_water_velocity,sea_water_speed,upward_sea_water_velocity,qcFlag 
TABS,ioos:station:wmo:42051:1,2006-05-01T00:00:00Z,29.6350,-93.6417,2.0,238.7716668,18.59407432,-99999.0,'11111222,11111222,99999999' 
TABS,ioos:station:wmo:42051:1,2006-05-01T00:30:00Z,29.6350,-93.6417,2.0,242.9375583,11.34176353,-99999.0,'11111222,11111222,99999999' 
TABS,ioos:station:wmo:42051:1,2006-05-01T01:00:00Z,29.6350,-93.6417,2.0,247.429835,12.32385086,-99999.0,'11111222,11111222,99999999' 
TABS,ioos:station:wmo:42051:1,2006-05-01T01:30:00Z,29.6350,-93.6417,2.0,240.6939741,16.18080653,-99999.0,'11111222,11111222,99999999' 
TABS,ioos:station:wmo:42051:1,2006-05-01T02:00:00Z,29.6350,-93.6417,2.0,248.3515401,20.8183789,-99999.0,'11111222,11111222,99999999' 
TABS,ioos:station:wmo:42051:1,2006-05-01T02:30:00Z,29.6350,-93.6417,2.0,238.888213,19.29536991,-99999.0,'11111222,11111222,99999999' 
TABS,ioos:station:wmo:42051:1,2006-05-01T03:00:00Z,29.6350,-93.6417,2.0,251.708632,17.62026674,-99999.0,'11111222,11111222,99999999' 
TABS,ioos:station:wmo:42051:1,2006-05-01T03:30:00Z,29.6350,-93.6417,2.0,254.5152354,17.75442762,-99999.0,'11111222,11111222,99999999' 
TABS,ioos:station:wmo:42051:1,2006-05-01T04:00:00Z,29.6350,-93.6417,2.0,265.7620852,19.08216445,-99999.0,'11111222,11111222,99999999' 
TABS,ioos:station:wmo:42051:1,2006-05-01T04:30:00Z,29.6350,-93.6417,2.0,262.148128,21.22901081,-99999.0,'11111222,11111222,99999999' 
TABS,ioos:station:wmo:42051:1,2006-05-01T05:00:00Z,29.6350,-93.6417,2.0,264.6929819,21.73314749,-99999.0,'11111222,11111222,99999999' 
TABS,ioos:station:wmo:42051:1,2006-05-01T05:30:00Z,29.6350,-93.6417,2.0,281.7765991,23.61708703,-99999.0,'11111222,11111222,99999999' 
TABS,ioos:station:wmo:42051:1,2006-05-01T06:00:00Z,29.6350,-93.6417,2.0,290.6801284,22.76689702,-99999.0,'11111222,11111222,99999999' 
TABS,ioos:station:wmo:42051:1,2006-05-01T06:30:00Z,29.6350,-93.6417,2.0,284.1519956,24.09111247,-99999.0,'11111222,11111222,99999999' 
TABS,ioos:station:wmo:42051:1,2006-05-01T07:00:00Z,29.6350,-93.6417,2.0,284.3914332,25.06653746,-99999.0,'11111222,11111222,99999999' 
TABS,ioos:station:wmo:42051:1,2006-05-01T07:30:00Z,29.6350,-93.6417,2.0,296.8889664,30.09348268,-99999.0,'11111222,11111222,99999999' 
TABS,ioos:station:wmo:42051:1,2006-05-01T08:00:00Z,29.6350,-93.6417,2.0,292.593853,26.73154129,-99999.0,'11111222,11111222,99999999' 
TABS,ioos:station:wmo:42051:1,2006-05-01T08:30:00Z,29.6350,-93.6417,2.0,275.4999966,25.66815342,-99999.0,'11111222,11111222,99999999' 
TABS,ioos:station:wmo:42051:1,2006-05-01T09:00:00Z,29.6350,-93.6417,2.0,269.1460001,28.1931286,-99999.0,'11111222,11111222,99999999' 
TABS,ioos:station:wmo:42051:1,2006-05-01T09:30:00Z,29.6350,-93.6417,2.0,267.8605669,28.39978873,-99999.0,'11111222,11111222,99999999' 
TABS,ioos:station:wmo:42051:1,2006-05-01T10:00:00Z,29.6350,-93.6417,2.0,261.2195275,29.54623665,-99999.0,'11111222,11111222,99999999' 
TABS,ioos:station:wmo:42051:1,2006-05-01T10:30:00Z,29.6350,-93.6417,2.0,272.5858248,28.81933552,-99999.0,'11111222,11111222,99999999' 
TABS,ioos:station:wmo:42051:1,2006-05-01T11:00:00Z,29.6350,-93.6417,2.0,272.7571867,29.52416807,-99999.0,'11111222,11111222,99999999' 
TABS,ioos:station:wmo:42051:1,2006-05-01T11:30:00Z,29.6350,-93.6417,2.0,261.1653253,26.69671141,-99999.0,'11111222,11111222,99999999' 
TABS,ioos:station:wmo:42051:1,2006-05-01T12:00:00Z,29.6350,-93.6417,2.0,249.8772875,29.53266835,-99999.0,'11111222,11111222,99999999' 
TABS,ioos:station:wmo:42051:1,2006-05-01T12:30:00Z,29.6350,-93.6417,2.0,261.6834716,30.49060511,-99999.0,'11111222,11111222,99999999' 
TABS,ioos:station:wmo:42051:1,2006-05-01T13:00:00Z,29.6350,-93.6417,2.0,265.0270803,26.88116999,-99999.0,'11111222,11111222,99999999' 
TABS,ioos:station:wmo:42051:1,2006-05-01T13:30:00Z,29.6350,-93.6417,2.0,261.7479468,24.66535424,-99999.0,'11111222,11111222,99999999' 
TABS,ioos:station:wmo:42051:1,2006-05-01T14:00:00Z,29.6350,-93.6417,2.0,265.942683,24.17056474,-99999.0,'11111222,11111222,99999999' 
TABS,ioos:station:wmo:42051:1,2006-05-01T14:30:00Z,29.6350,-93.6417,2.0,261.2960302,21.47732292,-99999.0,'11111222,11111222,99999999' 
TABS,ioos:station:wmo:42051:1,2006-05-01T15:00:00Z,29.6350,-93.6417,2.0,266.1235508,23.37346359,-99999.0,'11111222,11111222,99999999' 
TABS,ioos:station:wmo:42051:1,2006-05-01T16:00:00Z,29.6350,-93.6417,2.0,273.1833215,30.9777872,-99999.0,'11111222,11111222,99999999' 
TABS,ioos:station:wmo:42051:1,2006-05-01T16:30:00Z,29.6350,-93.6417,2.0,261.6180858,30.94046218,-99999.0,'11111222,11111222,99999999' 
TABS,ioos:station:wmo:42051:1,2006-05-01T17:00:00Z,29.6350,-93.6417,2.0,259.210635,28.68709292,-99999.0,'11111222,11111222,99999999' 
TABS,ioos:station:wmo:42051:1,2006-05-01T17:30:00Z,29.6350,-93.6417,2.0,259.5124424,24.17380607,-99999.0,'11111222,11111222,99999999' 
TABS,ioos:station:wmo:42051:1,2006-05-01T18:00:00Z,29.6350,-93.6417,2.0,261.7447168,22.07875449,-99999.0,'11111222,11111222,99999999' 
TABS,ioos:station:wmo:42051:1,2006-05-01T18:30:00Z,29.6350,-93.6417,2.0,259.3398841,21.08384215,-99999.0,'11111222,11111222,99999999' 
TABS,ioos:station:wmo:42051:1,2006-05-01T19:00:00Z,29.6350,-93.6417,2.0,263.6227122,22.41870871,-99999.0,'11111222,11111222,99999999' 
TABS,ioos:station:wmo:42051:1,2006-05-01T19:30:00Z,29.6350,-93.6417,2.0,261.3812645,25.55859542,-99999.0,'11111222,11111222,99999999' 
TABS,ioos:station:wmo:42051:1,2006-05-01T20:00:00Z,29.6350,-93.6417,2.0,259.2803289,24.73155879,-99999.0,'11111222,11111222,99999999' 
TABS,ioos:station:wmo:42051:1,2006-05-01T20:30:00Z,29.6350,-93.6417,2.0,255.9698594,21.40861976,-99999.0,'11111222,11111222,99999999' 
TABS,ioos:station:wmo:42051:1,2006-05-01T21:00:00Z,29.6350,-93.6417,2.0,262.0956947,19.34376385,-99999.0,'11111222,11111222,99999999' 
TABS,ioos:station:wmo:42051:1,2006-05-01T21:30:00Z,29.6350,-93.6417,2.0,271.3266056,19.8753239,-99999.0,'11111222,11111222,99999999' 
TABS,ioos:station:wmo:42051:1,2006-05-01T22:00:00Z,29.6350,-93.6417,2.0,258.5279845,19.45872041,-99999.0,'11111222,11111222,99999999' 
TABS,ioos:station:wmo:42051:1,2006-05-01T22:30:00Z,29.6350,-93.6417,2.0,260.2811022,21.3260498,-99999.0,'11111222,11111222,99999999' 
TABS,ioos:station:wmo:42051:1,2006-05-01T23:00:00Z,29.6350,-93.6417,2.0,270.2858588,22.080274,-99999.0,'11111222,11111222,99999999' 
TABS,ioos:station:wmo:42051:1,2006-05-01T23:30:00Z,29.6350,-93.6417,2.0,269.3515881,21.22135717,-99999.0,'11111222,11111222,99999999' 
TABS,ioos:station:wmo:42051:1,2006-05-02T00:00:00Z,29.6350,-93.6417,2.0,275.7009955,28.4909003,-99999.0,'11111222,11111222,99999999' 
TABS,ioos:station:wmo:42051:1,2006-05-02T00:30:00Z,29.6350,-93.6417,2.0,259.2413493,19.55368507,-99999.0,'11111222,11111222,99999999' 
TABS,ioos:station:wmo:42051:1,2006-05-02T01:00:00Z,29.6350,-93.6417,2.0,258.7831787,19.22725149,-99999.0,'11111222,11111222,99999999' 
TABS,ioos:station:wmo:42051:1,2006-05-02T02:00:00Z,29.6350,-93.6417,2.0,273.7353917,17.34684409,-99999.0,'11111222,11111222,99999999' 
TABS,ioos:station:wmo:42051:1,2006-05-02T02:30:00Z,29.6350,-93.6417,2.0,293.4120597,25.77169183,-99999.0,'11111222,11111222,99999999' 
TABS,ioos:station:wmo:42051:1,2006-05-02T03:00:00Z,29.6350,-93.6417,2.0,283.6260545,25.38443027,-99999.0,'11111222,11111222,99999999' 
TABS,ioos:station:wmo:42051:1,2006-05-02T03:30:00Z,29.6350,-93.6417,2.0,284.794912,28.03957382,-99999.0,'11111222,11111222,99999999' 
TABS,ioos:station:wmo:42051:1,2006-05-02T04:00:00Z,29.6350,-93.6417,2.0,282.2234745,27.44209358,-99999.0,'11111222,11111222,99999999' 
TABS,ioos:station:wmo:42051:1,2006-05-02T04:30:00Z,29.6350,-93.6417,2.0,277.2919864,22.61286802,-99999.0,'11111222,11111222,99999999' 
TABS,ioos:station:wmo:42051:1,2006-05-02T05:00:00Z,29.6350,-93.6417,2.0,262.5266965,20.83697915,-99999.0,'11111222,11111222,99999999' 
TABS,ioos:station:wmo:42051:1,2006-05-02T06:00:00Z,29.6350,-93.6417,2.0,270.3852941,22.3305038,-99999.0,'11111222,11111222,99999999' 
TABS,ioos:station:wmo:42051:1,2006-05-02T06:30:00Z,29.6350,-93.6417,2.0,269.5256805,24.18082712,-99999.0,'11111222,11111222,99999999' 
TABS,ioos:station:wmo:42051:1,2006-05-02T07:00:00Z,29.6350,-93.6417,2.0,267.4365357,23.70371279,-99999.0,'11111222,11111222,99999999' 
TABS,ioos:station:wmo:42051:1,2006-05-02T07:30:00Z,29.6350,-93.6417,2.0,258.2644813,25.37028183,-99999.0,'11111222,11111222,99999999' 
TABS,ioos:station:wmo:42051:1,2006-05-02T08:00:00Z,29.6350,-93.6417,2.0,259.8202433,18.78569935,-99999.0,'11111222,11111222,99999999' 
TABS,ioos:station:wmo:42051:1,2006-05-02T08:30:00Z,29.6350,-93.6417,2.0,294.5693753,24.26711767,-99999.0,'11111222,11111222,99999999' 
TABS,ioos:station:wmo:42051:1,2006-05-02T09:00:00Z,29.6350,-93.6417,2.0,287.885431,27.67752879,-99999.0,'11111222,11111222,99999999' 
TABS,ioos:station:wmo:42051:1,2006-05-02T09:30:00Z,29.6350,-93.6417,2.0,301.8148743,31.18531064,-99999.0,'11111222,11111222,99999999' 
TABS,ioos:station:wmo:42051:1,2006-05-02T10:00:00Z,29.6350,-93.6417,2.0,308.5281148,31.17705085,-99999.0,'11111222,11111222,99999999' 
TABS,ioos:station:wmo:42051:1,2006-05-02T10:30:00Z,29.6350,-93.6417,2.0,316.1550863,28.77094715,-99999.0,'11111222,11111222,99999999' 
TABS,ioos:station:wmo:42051:1,2006-05-02T11:00:00Z,29.6350,-93.6417,2.0,302.5066091,33.83006503,-99999.0,'11111222,11111222,99999999' 
TABS,ioos:station:wmo:42051:1,2006-05-02T11:30:00Z,29.6350,-93.6417,2.0,307.0037594,36.90210021,-99999.0,'11111222,11111222,99999999' 
TABS,ioos:station:wmo:42051:1,2006-05-02T12:00:00Z,29.6350,-93.6417,2.0,298.2507568,33.90898701,-99999.0,'11111222,11111222,99999999' 
TABS,ioos:station:wmo:42051:1,2006-05-02T12:30:00Z,29.6350,-93.6417,2.0,300.264158,39.16805459,-99999.0,'11111222,11111222,99999999' 
TABS,ioos:station:wmo:42051:1,2006-05-02T13:00:00Z,29.6350,-93.6417,2.0,301.9559057,40.22587476,-99999.0,'11111222,11111222,99999999' 
TABS,ioos:station:wmo:42051:1,2006-05-02T13:30:00Z,29.6350,-93.6417,2.0,294.4758017,37.6535908,-99999.0,'11111222,11111222,99999999' 
TABS,ioos:station:wmo:42051:1,2006-05-02T14:00:00Z,29.6350,-93.6417,2.0,288.243886,33.1250434,-99999.0,'11111222,11111222,99999999' 
TABS,ioos:station:wmo:42051:1,2006-05-02T14:30:00Z,29.6350,-93.6417,2.0,285.9745188,30.12317546,-99999.0,'11111222,11111222,99999999' 
TABS,ioos:station:wmo:42051:1,2006-05-02T15:00:00Z,29.6350,-93.6417,2.0,275.5697337,29.05716435,-99999.0,'11111222,11111222,99999999' 
TABS,ioos:station:wmo:42051:1,2006-05-02T15:30:00Z,29.6350,-93.6417,2.0,281.8901708,26.35543587,-99999.0,'11111222,11111222,99999999' 
TABS,ioos:station:wmo:42051:1,2006-05-02T16:00:00Z,29.6350,-93.6417,2.0,285.26332,25.71709548,-99999.0,'11111222,11111222,99999999' 
TABS,ioos:station:wmo:42051:1,2006-05-02T16:30:00Z,29.6350,-93.6417,2.0,291.1610578,30.05666981,-99999.0,'11111222,11111222,99999999' 
TABS,ioos:station:wmo:42051:1,2006-05-02T17:00:00Z,29.6350,-93.6417,2.0,266.9014374,26.45867155,-99999.0,'11111222,11111222,99999999' 
TABS,ioos:station:wmo:42051:1,2006-05-02T17:30:00Z,29.6350,-93.6417,2.0,281.1499902,20.32359466,-99999.0,'11111222,11111222,99999999' 
TABS,ioos:station:wmo:42051:1,2006-05-02T18:00:00Z,29.6350,-93.6417,2.0,289.5340688,17.64559152,-99999.0,'11111222,11111222,99999999' 
TABS,ioos:station:wmo:42051:1,2006-05-02T18:30:00Z,29.6350,-93.6417,2.0,290.5564181,16.91712742,-99999.0,'11111222,11111222,99999999' 
TABS,ioos:station:wmo:42051:1,2006-05-02T19:00:00Z,29.6350,-93.6417,2.0,280.2810155,16.92166954,-99999.0,'11111222,11111222,99999999' 
TABS,ioos:station:wmo:42051:1,2006-05-02T19:30:00Z,29.6350,-93.6417,2.0,261.4291528,17.84931651,-99999.0,'11111222,11111222,99999999' 
TABS,ioos:station:wmo:42051:1,2006-05-02T20:00:00Z,29.6350,-93.6417,2.0,274.2512857,17.53824678,-99999.0,'11111222,11111222,99999999' 
TABS,ioos:station:wmo:42051:1,2006-05-02T20:30:00Z,29.6350,-93.6417,2.0,276.2103883,18.95120313,-99999.0,'11111222,11111222,99999999' 
TABS,ioos:station:wmo:42051:1,2006-05-02T21:00:00Z,29.6350,-93.6417,2.0,292.2913208,17.82183212,-99999.0,'11111222,11111222,99999999' 
TABS,ioos:station:wmo:42051:1,2006-05-02T22:00:00Z,29.6350,-93.6417,2.0,288.0269462,16.41580032,-99999.0,'11111222,11111222,99999999' 
TABS,ioos:station:wmo:42051:1,2006-05-02T22:30:00Z,29.6350,-93.6417,2.0,284.4194803,18.8745437,-99999.0,'11111222,11111222,99999999' 
TABS,ioos:station:wmo:42051:1,2006-05-02T23:00:00Z,29.6350,-93.6417,2.0,290.1913431,18.36881052,-99999.0,'11111222,11111222,99999999' 
TABS,ioos:station:wmo:42051:1,2006-05-02T23:30:00Z,29.6350,-93.6417,2.0,307.7516343,22.75269215,-99999.0,'11111222,11111222,99999999' 
TABS,ioos:station:wmo:42051:1,2006-05-03T00:00:00Z,29.6350,-93.6417,2.0,285.7554436,18.19350708,-99999.0,'11111222,11111222,99999999' 
TABS,ioos:station:wmo:42051:1,2006-05-03T00:30:00Z,29.6350,-93.6417,2.0,260.3320057,15.60156402,-99999.0,'11111222,11111222,99999999' 
TABS,ioos:station:wmo:42051:1,2006-05-03T01:00:00Z,29.6350,-93.6417,2.0,272.0863052,15.66037675,-99999.0,'11111222,11111222,99999999' 
TABS,ioos:station:wmo:42051:1,2006-05-03T01:30:00Z,29.6350,-93.6417,2.0,283.2429689,15.93369386,-99999.0,'11111222,11111222,99999999' 
TABS,ioos:station:wmo:42051:1,2006-05-03T02:00:00Z,29.6350,-93.6417,2.0,276.2301105,16.0346874,-99999.0,'11111222,11111222,99999999' 
TABS,ioos:station:wmo:42051:1,2006-05-03T02:30:00Z,29.6350,-93.6417,2.0,270.7515225,13.73117985,-99999.0,'11111222,11111222,99999999' 
TABS,ioos:station:wmo:42051:1,2006-05-03T03:00:00Z,29.6350,-93.6417,2.0,267.8816864,13.25905728,-99999.0,'11111222,11111222,99999999' 
TABS,ioos:station:wmo:42051:1,2006-05-03T03:30:00Z,29.6350,-93.6417,2.0,263.9179034,14.44127764,-99999.0,'11111222,11111222,99999999' 
TABS,ioos:station:wmo:42051:1,2006-05-03T04:00:00Z,29.6350,-93.6417,2.0,262.9472896,11.72873395,-99999.0,'11111222,11111222,99999999' 
TABS,ioos:station:wmo:42051:1,2006-05-03T04:30:00Z,29.6350,-93.6417,2.0,272.7575711,7.068182227,-99999.0,'11133222,11111222,99999999' 
TABS,ioos:station:wmo:42051:1,2006-05-03T05:00:00Z,29.6350,-93.6417,2.0,270.2177232,7.91005689,-99999.0,'11133222,11111222,99999999' 
TABS,ioos:station:wmo:42051:1,2006-05-03T05:30:00Z,29.6350,-93.6417,2.0,265.7658422,7.991808306,-99999.0,'11133222,11111222,99999999' 
TABS,ioos:station:wmo:42051:1,2006-05-03T06:00:00Z,29.6350,-93.6417,2.0,272.2948456,5.994806085,-99999.0,'11133222,11111222,99999999' 
TABS,ioos:station:wmo:42051:1,2006-05-03T06:30:00Z,29.6350,-93.6417,2.0,297.0130231,4.57960697,-99999.0,'11133222,11111222,99999999' 
TABS,ioos:station:wmo:42051:1,2006-05-03T07:00:00Z,29.6350,-93.6417,2.0,283.4636942,4.123311776,-99999.0,'11133222,11111222,99999999' 
TABS,ioos:station:wmo:42051:1,2006-05-03T07:30:00Z,29.6350,-93.6417,2.0,327.0159262,6.079975329,-99999.0,'11133222,11111222,99999999' 
TABS,ioos:station:wmo:42051:1,2006-05-03T08:00:00Z,29.6350,-93.6417,2.0,333.054525,4.038427912,-99999.0,'11133222,11111222,99999999' 
TABS,ioos:station:wmo:42051:1,2006-05-03T08:30:00Z,29.6350,-93.6417,2.0,315.179364,4.525505497,-99999.0,'11133222,11111222,99999999' 
TABS,ioos:station:wmo:42051:1,2006-05-03T09:00:00Z,29.6350,-93.6417,2.0,328.4620774,3.250061538,-99999.0,'11133222,11111222,99999999' 
TABS,ioos:station:wmo:42051:1,2006-05-03T09:30:00Z,29.6350,-93.6417,2.0,339.6398085,4.799885415,-99999.0,'11133222,11111222,99999999' 
TABS,ioos:station:wmo:42051:1,2006-05-03T10:00:00Z,29.6350,-93.6417,2.0,241.0070512,3.58987465,-99999.0,'11133222,11111222,99999999' 
TABS,ioos:station:wmo:42051:1,2006-05-03T10:30:00Z,29.6350,-93.6417,2.0,238.6330279,5.609857396,-99999.0,'11133222,11111222,99999999' 
TABS,ioos:station:wmo:42051:1,2006-05-03T11:30:00Z,29.6350,-93.6417,2.0,216.177782,8.944652033,-99999.0,'11133222,11111222,99999999' 
TABS,ioos:station:wmo:42051:1,2006-05-03T12:00:00Z,29.6350,-93.6417,2.0,221.7500024,12.22432002,-99999.0,'11111222,11111222,99999999' 
TABS,ioos:station:wmo:42051:1,2006-05-03T12:30:00Z,29.6350,-93.6417,2.0,216.2232391,15.24697019,-99999.0,'11111222,11111222,99999999' 
TABS,ioos:station:wmo:42051:1,2006-05-03T13:00:00Z,29.6350,-93.6417,2.0,213.742634,15.03238171,-99999.0,'11111222,11111222,99999999' 
TABS,ioos:station:wmo:42051:1,2006-05-03T13:30:00Z,29.6350,-93.6417,2.0,234.0887115,13.02582435,-99999.0,'11111222,11111222,99999999' 
TABS,ioos:station:wmo:42051:1,2006-05-03T14:00:00Z,29.6350,-93.6417,2.0,220.7070922,11.71426481,-99999.0,'11111222,11111222,99999999' 
TABS,ioos:station:wmo:42051:1,2006-05-03T14:30:00Z,29.6350,-93.6417,2.0,214.6139948,14.78745752,-99999.0,'11111222,11111222,99999999' 
TABS,ioos:station:wmo:42051:1,2006-05-03T15:00:00Z,29.6350,-93.6417,2.0,264.8517063,7.801467811,-99999.0,'11133222,11111222,99999999' 
TABS,ioos:station:wmo:42051:1,2006-05-03T16:00:00Z,29.6350,-93.6417,2.0,226.7062675,16.85783201,-99999.0,'11111222,11111222,99999999' 
TABS,ioos:station:wmo:42051:1,2006-05-03T16:30:00Z,29.6350,-93.6417,2.0,233.8576224,17.63342281,-99999.0,'11111222,11111222,99999999' 
TABS,ioos:station:wmo:42051:1,2006-05-03T17:00:00Z,29.6350,-93.6417,2.0,239.9550544,18.49507232,-99999.0,'11111222,11111222,99999999' 
TABS,ioos:station:wmo:42051:1,2006-05-03T17:30:00Z,29.6350,-93.6417,2.0,254.4447438,18.94383541,-99999.0,'11111222,11111222,99999999' 
TABS,ioos:station:wmo:42051:1,2006-05-03T18:00:00Z,29.6350,-93.6417,2.0,263.6857844,19.18637537,-99999.0,'11111222,11111222,99999999' 
TABS,ioos:station:wmo:42051:1,2006-05-03T18:30:00Z,29.6350,-93.6417,2.0,271.5518838,14.03514517,-99999.0,'11111222,11111222,99999999' 
TABS,ioos:station:wmo:42051:1,2006-05-03T19:00:00Z,29.6350,-93.6417,2.0,285.5057017,13.05513309,-99999.0,'11111222,11111222,99999999' 
TABS,ioos:station:wmo:42051:1,2006-05-03T19:30:00Z,29.6350,-93.6417,2.0,277.8817548,9.772307813,-99999.0,'11133222,11111222,99999999' 
TABS,ioos:station:wmo:42051:1,2006-05-03T20:00:00Z,29.6350,-93.6417,2.0,278.1151517,10.55569041,-99999.0,'11111222,11111222,99999999' 
TABS,ioos:station:wmo:42051:1,2006-05-03T20:30:00Z,29.6350,-93.6417,2.0,292.8768578,11.67857868,-99999.0,'11111222,11111222,99999999' 
TABS,ioos:station:wmo:42051:1,2006-05-03T21:00:00Z,29.6350,-93.6417,2.0,292.5976525,9.759231527,-99999.0,'11133222,11111222,99999999' 
TABS,ioos:station:wmo:42051:1,2006-05-03T22:00:00Z,29.6350,-93.6417,2.0,288.6908556,12.76307957,-99999.0,'11111222,11111222,99999999' 
TABS,ioos:station:wmo:42051:1,2006-05-03T22:30:00Z,29.6350,-93.6417,2.0,303.2362525,15.74565972,-99999.0,'11111222,11111222,99999999' 
TABS,ioos:station:wmo:42051:1,2006-05-03T23:00:00Z,29.6350,-93.6417,2.0,300.5974083,16.34586492,-99999.0,'11111222,11111222,99999999' 
TABS,ioos:station:wmo:42051:1,2006-05-03T23:30:00Z,29.6350,-93.6417,2.0,315.0277956,14.74317808,-99999.0,'11111222,11111222,99999999' 
TABS,ioos:station:wmo:42051:1,2006-05-04T00:00:00Z,29.6350,-93.6417,2.0,301.3265875,8.674572036,-99999.0,'11133222,11111222,99999999' 
TABS,ioos:station:wmo:42051:1,2006-05-04T00:30:00Z,29.6350,-93.6417,2.0,285.8557707,7.869396419,-99999.0,'11133222,11111222,99999999' 
TABS,ioos:station:wmo:42051:1,2006-05-04T01:00:00Z,29.6350,-93.6417,2.0,281.3859481,8.915447269,-99999.0,'11133222,11111222,99999999' 
TABS,ioos:station:wmo:42051:1,2006-05-04T01:30:00Z,29.6350,-93.6417,2.0,228.9235645,5.889864175,-99999.0,'11133222,11111222,99999999' 
TABS,ioos:station:wmo:42051:1,2006-05-04T02:00:00Z,29.6350,-93.6417,2.0,236.6156306,7.269449773,-99999.0,'11133222,11111222,99999999' 
TABS,ioos:station:wmo:42051:1,2006-05-04T02:30:00Z,29.6350,-93.6417,2.0,235.7333169,5.239408364,-99999.0,'11133222,11111222,99999999' 
TABS,ioos:station:wmo:42051:1,2006-05-04T03:00:00Z,29.6350,-93.6417,2.0,216.9867356,6.848014311,-99999.0,'11133222,11111222,99999999' 
TABS,ioos:station:wmo:42051:1,2006-05-04T03:30:00Z,29.6350,-93.6417,2.0,212.8052014,5.389554713,-99999.0,'11133222,11111222,99999999' 
TABS,ioos:station:wmo:42051:1,2006-05-04T04:00:00Z,29.6350,-93.6417,2.0,204.612562,10.10842223,-99999.0,'11111222,11111222,99999999' 
TABS,ioos:station:wmo:42051:1,2006-05-04T04:30:00Z,29.6350,-93.6417,2.0,210.0973848,9.870871289,-99999.0,'11133222,11111222,99999999' 
TABS,ioos:station:wmo:42051:1,2006-05-04T05:00:00Z,29.6350,-93.6417,2.0,205.5156052,11.7234338,-99999.0,'11111222,11111222,99999999' 
TABS,ioos:station:wmo:42051:1,2006-05-04T05:30:00Z,29.6350,-93.6417,2.0,193.0895221,12.18665253,-99999.0,'11111222,11111222,99999999' 
TABS,ioos:station:wmo:42051:1,2006-05-04T06:00:00Z,29.6350,-93.6417,2.0,196.0514376,14.06849317,-99999.0,'11111222,11111222,99999999' 
TABS,ioos:station:wmo:42051:1,2006-05-04T06:30:00Z,29.6350,-93.6417,2.0,186.4711151,15.43836779,-99999.0,'11111222,11111222,99999999' 
TABS,ioos:station:wmo:42051:1,2006-05-04T07:00:00Z,29.6350,-93.6417,2.0,188.4435518,14.98240301,-99999.0,'11111222,11111222,99999999' 
TABS,ioos:station:wmo:42051:1,2006-05-04T07:30:00Z,29.6350,-93.6417,2.0,193.5639187,15.30694287,-99999.0,'11111222,11111222,99999999' 
TABS,ioos:station:wmo:42051:1,2006-05-04T08:00:00Z,29.6350,-93.6417,2.0,202.3708522,13.82013025,-99999.0,'11111222,11111222,99999999' 
TABS,ioos:station:wmo:42051:1,2006-05-04T08:30:00Z,29.6350,-93.6417,2.0,194.8561822,10.33550192,-99999.0,'11111222,11111222,99999999' 
TABS,ioos:station:wmo:42051:1,2006-05-04T09:00:00Z,29.6350,-93.6417,2.0,197.5209883,13.28641788,-99999.0,'11111222,11111222,99999999' 
TABS,ioos:station:wmo:42051:1,2006-05-04T09:30:00Z,29.6350,-93.6417,2.0,192.2999395,11.68830612,-99999.0,'11111222,11111222,99999999' 
TABS,ioos:station:wmo:42051:1,2006-05-04T10:00:00Z,29.6350,-93.6417,2.0,192.6056818,13.70025547,-99999.0,'11111222,11111222,99999999' 
TABS,ioos:station:wmo:42051:1,2006-05-04T10:30:00Z,29.6350,-93.6417,2.0,189.0787344,14.00546322,-99999.0,'11111222,11111222,99999999' 
TABS,ioos:station:wmo:42051:1,2006-05-04T11:00:00Z,29.6350,-93.6417,2.0,196.6555429,12.62990103,-99999.0,'11111222,11111222,99999999' 
TABS,ioos:station:wmo:42051:1,2006-05-04T11:30:00Z,29.6350,-93.6417,2.0,197.8636612,14.27839277,-99999.0,'11111222,11111222,99999999' 
TABS,ioos:station:wmo:42051:1,2006-05-04T12:00:00Z,29.6350,-93.6417,2.0,198.564533,9.768300773,-99999.0,'11133222,11111222,99999999' 
TABS,ioos:station:wmo:42051:1,2006-05-04T12:30:00Z,29.6350,-93.6417,2.0,202.5865178,7.993078256,-99999.0,'11133222,11111222,99999999' 
TABS,ioos:station:wmo:42051:1,2006-05-04T13:00:00Z,29.6350,-93.6417,2.0,183.6666844,8.286965669,-99999.0,'11133222,11111222,99999999' 
TABS,ioos:station:wmo:42051:1,2006-05-04T13:30:00Z,29.6350,-93.6417,2.0,185.1170924,12.10826164,-99999.0,'11111222,11111222,99999999' 
TABS,ioos:station:wmo:42051:1,2006-05-04T14:00:00Z,29.6350,-93.6417,2.0,187.6766362,15.19620018,-99999.0,'11111222,11111222,99999999' 
TABS,ioos:station:wmo:42051:1,2006-05-04T14:30:00Z,29.6350,-93.6417,2.0,194.7412904,14.3834523,-99999.0,'11111222,11111222,99999999' 
TABS,ioos:station:wmo:42051:1,2006-05-04T15:30:00Z,29.6350,-93.6417,2.0,190.4823791,14.12575662,-99999.0,'11111222,11111222,99999999' 
TABS,ioos:station:wmo:42051:1,2006-05-04T16:00:00Z,29.6350,-93.6417,2.0,188.1298729,13.15218613,-99999.0,'11111222,11111222,99999999' 
TABS,ioos:station:wmo:42051:1,2006-05-04T16:30:00Z,29.6350,-93.6417,2.0,191.5005421,13.54189425,-99999.0,'11111222,11111222,99999999' 
TABS,ioos:station:wmo:42051:1,2006-05-04T17:00:00Z,29.6350,-93.6417,2.0,197.0741541,17.84660192,-99999.0,'11111222,11111222,99999999' 
TABS,ioos:station:wmo:42051:1,2006-05-04T17:30:00Z,29.6350,-93.6417,2.0,190.7100216,15.9274637,-99999.0,'11111222,11111222,99999999' 
TABS,ioos:station:wmo:42051:1,2006-05-04T18:00:00Z,29.6350,-93.6417,2.0,184.130139,12.77317502,-99999.0,'11111222,11111222,99999999' 
TABS,ioos:station:wmo:42051:1,2006-05-04T18:30:00Z,29.6350,-93.6417,2.0,185.9412954,13.33161656,-99999.0,'11111222,11111222,99999999' 
TABS,ioos:station:wmo:42051:1,2006-05-04T19:00:00Z,29.6350,-93.6417,2.0,182.2455269,10.71823213,-99999.0,'11111222,11111222,99999999' 
TABS,ioos:station:wmo:42051:1,2006-05-04T19:30:00Z,29.6350,-93.6417,2.0,190.5821709,16.0632064,-99999.0,'11111222,11111222,99999999' 
TABS,ioos:station:wmo:42051:1,2006-05-04T20:00:00Z,29.6350,-93.6417,2.0,213.9104446,12.24232413,-99999.0,'11111222,11111222,99999999' 